Location: Newark
(35.8833°N, 14.5000°E)
Time: 23:16:17
(UTC+00:00)

Altair - Pass Details

Date: 29 November 2019
Orbit: 1502 x 1682 km, 47.2° (Epoch: 14 December)

Event Time Altitude Azimuth Distance (km) Brightness Sun altitude
Rises 23:48:30 0° 250° (WSW) 4,702 - -70.7°
Reaches altitude 10° 23:51:38 10° 253° (WSW) 3,700 - -70.2°
Maximum altitude 00:00:50 63° 334° (NNW) 1,657 - -68.8°
Drops below altitude 10° 00:09:55 10° 55° (NE) 3,654 - -67.3°
Exits shadow 00:11:20 - 57° (ENE) 4,105 10.0 -67.1°
Sets 00:13:00 0° 59° (ENE) 4,640 10.4 -66.8°
